Location: Bieujac
(44.5398°N, 0.1549°W)
Time: 02:16:30
(UTC+00:00)

NOSS 3-3 (A) - Pass Details

Date: 22 February 2020
Orbit: 836 x 1376 km, 63.4° (Epoch: 06 April)

Event Time Altitude Azimuth Distance (km) Brightness Sun altitude
Exits shadow 03:43:45 - 156° (SSE) 3,340 6.8 -33.7°
Reaches altitude 10° 03:47:18 10° 132° (SE) 2,536 6.5 -33.1°
Maximum altitude 03:49:58 13° 104° (ESE) 2,356 6.6 -32.6°
Drops below altitude 10° 03:52:44 10° 77° (ENE) 2,663 7.1 -32.2°
Sets 03:56:53 0° 52° (NE) 3,729 8.0 -31.5°
